Zurück zum Katalog

STARLINK-36375

AktivKommunikationVLEO
NORAD 67920·PAYLOAD·🇺🇸 United States

Gestartet Feb 22, 2026 von Vandenberg Space Force Base

Loading…

Nächste Überflüge (nächste 24 Stunden)

TLE

AktuellSource: CelesTrak SupGP

Epoche: Sep 14, 2026, 21:29 UTC

1 67920C 26036S   26257.89562500  .00034868  00000+0  12633-2 0  2570
2 67920  42.9991 257.0668 0001449 263.8595 137.0371 15.27551499    11

Verfolge STARLINK-36375 in Echtzeit mit AllMySat

Download on the App Store